Location: Marcé
(47.5801°N, 0.3280°W)
Time: 08:58:31
(UTC+01:00)

Tiros 1 despin weight - Pass Details

Date: 18 December 2021
Orbit: 592 x 641 km, 48.2° (Epoch: 25 January)

Event Time Altitude Azimuth Distance (km) Brightness Sun altitude
Rises 09:58:27 0° 250° (WSW) 2,886 ? 8.4°
Reaches altitude 10° 10:00:46 10° 249° (WSW) 1,973 ? 8.6°
Maximum altitude 10:05:18 77° 164° (SSE) 628 ? 9.1°
Drops below altitude 10° 10:09:45 10° 79° (ENE) 1,947 ? 9.6°
Sets 10:12:02 0° 78° (ENE) 2,845 ? 9.8°
